Location: Spruce Knob
(38.6995°N, 79.5330°W)
Time: 01:37:14
(UTC-05:00)

BlueWalker 3 - Pass Details

Date: 11 December 2022
Orbit: 499 x 517 km, 53.2° (Epoch: 02 February)

Event Time Altitude Azimuth Distance (km) Brightness Sun altitude
Rises 19:34:15 0° 295° (WNW) 2,611 6.4 -29.9°
Reaches altitude 10° 19:37:04 10° 274° (W) 1,716 5.5 -30.4°
Maximum altitude 19:39:32 16° 234° (SW) 1,356 4.7 -30.9°
Enters shadow 19:39:55 16° 227° (SW) 1,364 4.6 -31.0°
